This is the latest recevied weather packets stored in our database for station/object IZ3VCM. If no packets are shown the sender has not sent any weather packets the latest 10 day(s).
| Time | Temp. | Humidity | Pressure | Rain* | Wind** | Luminosity | Snow |
|---|---|---|---|---|---|---|---|
| 1777491905 | 14.44° C | 75% | 1018.5 hPa | 0 mm | - | - | - |
| 1777491006 | 15° C | 74% | 1018.3 hPa | 0 mm | - | - | - |
| 1777490104 | 15.56° C | 70% | 1018.1 hPa | 0 mm | - | - | - |
| 1777489206 | 16.11° C | 66% | 1017.9 hPa | 0 mm | - | - | - |
| 1777488304 | 16.67° C | 65% | 1017.5 hPa | 0 mm | - | - | - |
| 1777487407 | 16.67° C | 63% | 1017.1 hPa | 0 mm | - | - | - |
| 1777486504 | 16.67° C | 63% | 1017 hPa | 0 mm | - | - | - |
| 1777485607 | 17.22° C | 62% | 1016.8 hPa | 0 mm | - | - | - |
| 1777484705 | 17.22° C | 62% | 1016.7 hPa | 0 mm | - | - | - |
| 1777483806 | 17.78° C | 61% | 1016.6 hPa | 0 mm | - | - | - |
| 1777482904 | 18.33° C | 59% | 1016.6 hPa | 0 mm | - | - | - |
| 1777482007 | 18.33° C | 59% | 1016.6 hPa | 0 mm | - | - | - |
| 1777481104 | 18.89° C | 59% | 1016.4 hPa | 0 mm | - | - | - |
| 1777480206 | 19.44° C | 59% | 1016.1 hPa | 0 mm | - | - | - |
| 1777479304 | 20° C | 58% | 1016.4 hPa | 0 mm | - | - | - |
| 1777478406 | 20° C | 56% | 1016.2 hPa | 0 mm | - | - | - |
| 1777477504 | 21.67° C | 54% | 1016 hPa | 0 mm | - | - | - |
| 1777476606 | 21.67° C | 54% | 1015.9 hPa | 0 mm | - | - | - |
| 1777475704 | 22.78° C | 54% | 1015.9 hPa | 0 mm | - | - | - |
| 1777474807 | 22.78° C | 54% | 1015.8 hPa | 0 mm | - | - | - |
| 1777473905 | 23.33° C | 54% | 1015.8 hPa | 0 mm | - | - | - |
| 1777473007 | 22.78° C | 54% | 1015.9 hPa | 0 mm | - | - | - |
| 1777472104 | 23.89° C | 53% | 1016 hPa | 0 mm | - | - | - |
| 1777471206 | 23.33° C | 52% | 1016.2 hPa | 0 mm | - | - | - |
| 1777470304 | 23.33° C | 52% | 1016.1 hPa | 0 mm | - | - | - |
* Rain latest hour (hover to see other rain measurements)
** Current wind speed in m/s (hover to see current wind gust speed)